Location: Rounton
(54.4000°N, 1.3500°W)
Time: 21:39:34
(UTC+01:00)

deb Delta 126 - Pass Details

Date: 04 July 2022
Orbit: 1120 x 1970 km, 101.5° (Epoch: 17 August)

Event Time Altitude Azimuth Distance (km) Brightness Sun altitude
Rises 23:14:31 0° 25° (NNE) 5,058 ? -8.9°
Reaches altitude 10° 23:17:37 10° 18° (NNE) 4,155 ? -9.1°
Maximum altitude 23:26:53 41° 315° (NW) 2,587 ? -9.7°
Drops below altitude 10° 23:36:41 10° 251° (WSW) 4,395 ? -10.2°
Sets 23:40:05 0° 245° (WSW) 5,374 ? -10.4°
